Weather History for KBTV - July, 2013

Change the Weather History Date:

Wednesday, July 31, 2013

  Actual Average Record
Temperature  
Mean Temperature 70 °F 70 °F  
Max Temperature 83 °F 81 °F 96 °F (1999)
Min Temperature 57 °F 60 °F 42 °F (1964)
Degree Days  
Heating Degree Days 0 0  
Month to date heating degree days 7 8  
Since 1 June heating degree days 72 86  
Since 1 July heating degree days 7 13  
Cooling Degree Days 5 6  
Month to date cooling degree days 285 187  
Year to date cooling degree days 447 303  
Since 1 June cooling degree days 400 284  
Growing Degree Days 20 (Base 50)    
Moisture  
Dew Point 57 °F    
Average Humidity 65    
Maximum Humidity 93    
Minimum Humidity 36    
Precipitation  
Precipitation 0.00 in 0.13 in 1.75 in (1962)
Month to date precipitation 4.49 4.16  
Year to date precipitation 29.62 20.16  
Snow  
Snow 0.00 in 0.00 in 0.00 in (2002)
Month to date snowfall 0.0 0.0  
Since 1 June snowfall 0.0 0.0  
Since 1 July snowfall 0.0 0.0  
Snow Depth 0.00 in    
Sea Level Pressure  
Sea Level Pressure 30.08 in    
Wind  
Wind Speed 5 mph (South)    
Max Wind Speed 12 mph    
Max Gust Speed 15 mph    
Visibility 10 miles    
Events      
T = Trace of Precipitation, MM = Missing Value Source: NWS Daily Summary

Daily Weather History Graph

Daily Weather History Graph

Search for Another Location

Airport or City:

Trip Planner

Search our weather history database for the weather conditions in past years. The results will help you decide how hot, cold, wet, or windy it might be!

Date:

Astronomy

Jul. 31, 2013 Rise Set
Actual Time 5:38 AM EDT 8:18 PM EDT
Civil Twilight 5:05 AM EDT 8:51 PM EDT
Nautical Twilight 4:23 AM EDT 9:33 PM EDT
Astronomical Twilight 3:34 AM EDT 10:21 PM EDT
Moon 12:32 AM EDT (7/31) 3:33 PM EDT (7/31)
Length of Visible Light 15h 46m
Length of Day
14h 40m
Waning Crescent, 32% of the Moon is Illuminated
Jul 31
Waning Crescent
Aug 6
New
Aug 14
First Quarter
Aug 20
Full
Aug 28
Last Quarter

Hourly Weather History & Observations

Time (EDT) Temp. Heat Index Dew Point Humidity Pressure Visibility Wind Dir Wind Speed Gust Speed Precip Events Conditions
12:54 AM 61.0 °F - 57.0 °F 87% 30.11 in 10.0 mi Calm Calm - N/A   Clear
1:54 AM 60.1 °F - 57.0 °F 90% 30.12 in 10.0 mi Calm Calm - N/A   Clear
2:54 AM 59.0 °F - 55.9 °F 90% 30.12 in 10.0 mi Calm Calm - N/A   Clear
3:54 AM 57.9 °F - 55.0 °F 90% 30.10 in 10.0 mi ESE 3.5 mph - N/A   Clear
4:54 AM 57.0 °F - 55.0 °F 93% 30.12 in 10.0 mi Calm Calm - N/A   Clear
5:54 AM 57.0 °F - 55.0 °F 93% 30.13 in 10.0 mi Calm Calm - N/A   Scattered Clouds
6:54 AM 59.0 °F - 55.9 °F 90% 30.13 in 10.0 mi Calm Calm - N/A   Partly Cloudy
7:54 AM 64.9 °F - 59.0 °F 81% 30.14 in 10.0 mi SSE 4.6 mph - N/A   Partly Cloudy
8:54 AM 69.1 °F - 59.0 °F 70% 30.13 in 10.0 mi South 5.8 mph - N/A   Partly Cloudy
9:54 AM 71.1 °F - 59.0 °F 66% 30.12 in 10.0 mi South 9.2 mph - N/A   Partly Cloudy
10:54 AM 73.9 °F - 57.9 °F 57% 30.12 in 10.0 mi South 8.1 mph - N/A   Partly Cloudy
11:54 AM 77.0 °F - 59.0 °F 54% 30.11 in 10.0 mi SSW 8.1 mph - N/A   Partly Cloudy
12:54 PM 79.0 °F - 54.0 °F 42% 30.09 in 10.0 mi Variable 6.9 mph - N/A   Partly Cloudy
1:54 PM 80.1 °F - 51.1 °F 36% 30.07 in 10.0 mi Variable 3.5 mph - N/A   Partly Cloudy
2:54 PM 80.1 °F 80.0 °F 54.0 °F 40% 30.06 in 10.0 mi Variable 3.5 mph - N/A   Partly Cloudy
3:54 PM 81.0 °F 80.7 °F 55.0 °F 41% 30.04 in 10.0 mi South 8.1 mph - N/A   Partly Cloudy
4:54 PM 80.1 °F 80.2 °F 55.9 °F 43% 30.03 in 10.0 mi SSE 6.9 mph - N/A   Partly Cloudy
5:54 PM 80.1 °F 80.4 °F 57.0 °F 45% 30.02 in 10.0 mi Variable 3.5 mph - N/A   Partly Cloudy
6:54 PM 79.0 °F - 57.9 °F 48% 30.01 in 10.0 mi South 8.1 mph - N/A   Partly Cloudy
7:54 PM 75.0 °F - 60.1 °F 60% 30.01 in 10.0 mi South 5.8 mph - N/A   Partly Cloudy
8:54 PM 73.0 °F - 59.0 °F 61% 30.00 in 10.0 mi SSE 6.9 mph - N/A   Clear
9:54 PM 72.0 °F - 57.9 °F 61% 30.00 in 10.0 mi South 4.6 mph - N/A   Clear
10:54 PM 72.0 °F - 57.9 °F 61% 30.00 in 10.0 mi South 6.9 mph - N/A   Clear
11:54 PM 71.1 °F - 57.0 °F 61% 30.00 in 10.0 mi South 8.1 mph - N/A   Clear